• In Latvia
  • List of Countries
  • For 7 days
  • Water Temperature
  • Satellite Maps
  • Weather Map
  • Weather Widgets
  • user-avatar
    Login

    Hourly Weather Harare

    Today, 21 July, Saturday

    Time Temperature Precipitation Wind Pressure Humidity
    00:00 +10°C° 0 mm 2 mps 642 mmHg 76%
    01:00 +9°C° 0 mm 2 mps 642 mmHg 80%
    02:00 +9°C° 0 mm 2 mps 642 mmHg 85%
    03:00 +8°C° 0 mm 2 mps 642 mmHg 87%
    04:00 +8°C° 0 mm 2 mps 642 mmHg 89%
    05:00 +7°C° 0 mm 2 mps 641 mmHg 91%
    06:00 +9°C° 0 mm 2 mps 642 mmHg 85%
    07:00 +10°C° 0 mm 2 mps 643 mmHg 79%
    08:00 +11°C° 0 mm 3 mps 643 mmHg 70%
    09:00 +14°C° 0 mm 3 mps 644 mmHg 60%
    10:00 +17°C° 0 mm 3 mps 645 mmHg 50%
    11:00 +19°C° 0 mm 3 mps 645 mmHg 40%
    12:00 +20°C° 0 mm 3 mps 645 mmHg 36%
    13:00 +21°C° 0 mm 3 mps 645 mmHg 33%
    14:00 +22°C° 0 mm 3 mps 645 mmHg 30%
    15:00 +21°C° 0 mm 3 mps 644 mmHg 32%
    16:00 +20°C° 0 mm 3 mps 644 mmHg 34%
    17:00 +19°C° 0 mm 3 mps 644 mmHg 37%
    18:00 +17°C° 0 mm 3 mps 643 mmHg 44%
    19:00 +15°C° 0 mm 2 mps 643 mmHg 52%
    20:00 +13°C° 0 mm 2 mps 643 mmHg 60%
    21:00 +12°C° 0 mm 2 mps 643 mmHg 64%
    22:00 +12°C° 0 mm 2 mps 643 mmHg 69%
    23:00 +10°C° 0 mm 2 mps 643 mmHg 73%

    Tomorrow, 22 July, Sunday

    Time Temperature Precipitation Wind Pressure Humidity
    00:00 +10°C° 0 mm 2 mps 643 mmHg 75%
    01:00 +9°C° 0 mm 2 mps 643 mmHg 76%
    02:00 +9°C° 0 mm 2 mps 643 mmHg 78%
    03:00 +8°C° 0 mm 2 mps 643 mmHg 78%
    04:00 +8°C° 0 mm 2 mps 643 mmHg 78%
    05:00 +8°C° 0 mm 2 mps 642 mmHg 79%
    06:00 +9°C° 0 mm 2 mps 643 mmHg 74%
    07:00 +10°C° 0 mm 3 mps 644 mmHg 70%
    08:00 +12°C° 0 mm 3 mps 644 mmHg 66%
    09:00 +14°C° 0 mm 3 mps 645 mmHg 58%
    10:00 +17°C° 0 mm 4 mps 646 mmHg 50%
    11:00 +20°C° 0 mm 4 mps 646 mmHg 42%
    12:00 +20°C° 0 mm 4 mps 646 mmHg 40%
    13:00 +21°C° 0 mm 4 mps 646 mmHg 37%
    14:00 +22°C° 0 mm 4 mps 645 mmHg 35%
    15:00 +21°C° 0 mm 3 mps 645 mmHg 38%
    16:00 +20°C° 0 mm 3 mps 645 mmHg 40%
    17:00 +19°C° 0 mm 3 mps 644 mmHg 43%
    18:00 +18°C° 0 mm 3 mps 644 mmHg 49%
    19:00 +16°C° 0 mm 3 mps 644 mmHg 55%
    20:00 +14°C° 0 mm 3 mps 644 mmHg 61%
    21:00 +13°C° 0 mm 3 mps 644 mmHg 66%
    22:00 +13°C° 0 mm 2 mps 644 mmHg 72%
    23:00 +12°C° 0 mm 2 mps 644 mmHg 77%

    Day after tomorrow, 23 July, Monday

    Time Temperature Precipitation Wind Pressure Humidity
    00:00 +12°C° 0 mm 2 mps 644 mmHg 80%
    01:00 +10°C° 0 mm 2 mps 643 mmHg 83%
    02:00 +10°C° 0 mm 2 mps 643 mmHg 86%
    03:00 +9°C° 0 mm 2 mps 643 mmHg 87%
    04:00 +9°C° 0 mm 2 mps 643 mmHg 88%
    05:00 +9°C° 0 mm 2 mps 642 mmHg 89%
    06:00 +10°C° 0 mm 3 mps 643 mmHg 84%
    07:00 +10°C° 0 mm 3 mps 644 mmHg 78%
    08:00 +11°C° 0 mm 3 mps 645 mmHg 73%
    09:00 +14°C° 0 mm 3 mps 645 mmHg 61%
    10:00 +17°C° 0 mm 3 mps 646 mmHg 49%
    11:00 +19°C° 0 mm 4 mps 647 mmHg 37%
    12:00 +20°C° 0 mm 4 mps 646 mmHg 34%
    13:00 +21°C° 0 mm 3 mps 646 mmHg 32%
    14:00 +22°C° 0 mm 3 mps 646 mmHg 29%
    15:00 +21°C° 0 mm 3 mps 645 mmHg 31%
    16:00 +20°C° 0 mm 3 mps 645 mmHg 34%
    17:00 +19°C° 0 mm 3 mps 644 mmHg 36%
    18:00 +18°C° 0 mm 3 mps 644 mmHg 42%
    19:00 +16°C° 0 mm 3 mps 644 mmHg 48%
    20:00 +13°C° 0 mm 3 mps 644 mmHg 53%
    21:00 +13°C° 0 mm 2 mps 644 mmHg 57%
    22:00 +12°C° 0 mm 2 mps 644 mmHg 62%
    23:00 +11°C° 0 mm 1 mps 644 mmHg 66%

    24 July, Tuesday

    Time Temperature Precipitation Wind Pressure Humidity
    00:00 +10°C° 0 mm 1 mps 643 mmHg 69%
    01:00 +10°C° 0 mm 1 mps 643 mmHg 73%
    02:00 +9°C° 0 mm 1 mps 642 mmHg 77%
    03:00 +9°C° 0 mm 1 mps 642 mmHg 80%
    04:00 +9°C° 0 mm 1 mps 642 mmHg 83%
    05:00 +8°C° 0 mm 1 mps 642 mmHg 85%
    06:00 +9°C° 0 mm 2 mps 643 mmHg 81%
    07:00 +10°C° 0 mm 2 mps 643 mmHg 77%
    08:00 +12°C° 0 mm 2 mps 644 mmHg 73%
    09:00 +14°C° 0 mm 3 mps 645 mmHg 64%
    10:00 +17°C° 0 mm 3 mps 645 mmHg 56%
    11:00 +19°C° 0 mm 3 mps 646 mmHg 48%
    12:00 +20°C° 0 mm 3 mps 646 mmHg 44%
    13:00 +21°C° 0 mm 3 mps 645 mmHg 41%
    14:00 +22°C° 0 mm 3 mps 645 mmHg 37%
    15:00 +21°C° 0 mm 3 mps 644 mmHg 40%
    16:00 +20°C° 0 mm 3 mps 644 mmHg 42%
    17:00 +19°C° 0 mm 3 mps 643 mmHg 44%
    18:00 +18°C° 0 mm 3 mps 643 mmHg 52%
    19:00 +16°C° 0 mm 2 mps 643 mmHg 60%
    20:00 +14°C° 0 mm 2 mps 643 mmHg 68%
    21:00 +13°C° 0 mm 2 mps 642 mmHg 72%
    22:00 +12°C° 0 mm 2 mps 642 mmHg 75%
    23:00 +11°C° 0 mm 1 mps 642 mmHg 79%

    25 July, Wednesday

    Time Temperature Precipitation Wind Pressure Humidity
    00:00 +11°C° 0 mm 1 mps 642 mmHg 81%
    01:00 +10°C° 0 mm 1 mps 641 mmHg 83%
    02:00 +10°C° 0 mm 1 mps 641 mmHg 85%
    03:00 +9°C° 0 mm 1 mps 641 mmHg 85%
    04:00 +9°C° 0 mm 1 mps 641 mmHg 84%
    05:00 +9°C° 0 mm 1 mps 641 mmHg 84%
    06:00 +10°C° 0 mm 1 mps 642 mmHg 76%
    07:00 +11°C° 0 mm 1 mps 642 mmHg 68%
    08:00 +13°C° 0 mm 1 mps 643 mmHg 60%
    09:00 +16°C° 0 mm 1 mps 644 mmHg 49%
    10:00 +20°C° 0 mm 1 mps 645 mmHg 37%
    11:00 +23°C° 0 mm 1 mps 645 mmHg 26%
    12:00 +24°C° 0 mm 1 mps 645 mmHg 23%
    13:00 +25°C° 0 mm 1 mps 644 mmHg 19%
    14:00 +26°C° 0 mm 1 mps 644 mmHg 16%
    15:00 +25°C° 0 mm 1 mps 643 mmHg 17%
    16:00 +23°C° 0 mm 1 mps 642 mmHg 19%
    17:00 +22°C° 0 mm 1 mps 642 mmHg 20%
    18:00 +20°C° 0 mm 1 mps 641 mmHg 24%
    19:00 +16°C° 0 mm 1 mps 641 mmHg 28%
    20:00 +14°C° 0 mm 1 mps 641 mmHg 32%
    21:00 +13°C° 0 mm 1 mps 641 mmHg 35%
    22:00 +13°C° 0 mm 1 mps 641 mmHg 37%
    23:00 +12°C° 0 mm 1 mps 641 mmHg 40%

    26 July, Thursday

    Time Temperature Precipitation Wind Pressure Humidity
    00:00 +12°C° 0 mm 1 mps 640 mmHg 42%
    01:00 +11°C° 0 mm 1 mps 640 mmHg 44%
    02:00 +10°C° 0 mm 1 mps 640 mmHg 46%
    03:00 +10°C° 0 mm 1 mps 640 mmHg 48%
    04:00 +10°C° 0 mm 1 mps 640 mmHg 50%
    05:00 +9°C° 0 mm 1 mps 640 mmHg 52%
    06:00 +11°C° 0 mm 1 mps 640 mmHg 50%
    07:00 +12°C° 0 mm 1 mps 641 mmHg 48%
    08:00 +14°C° 0 mm 1 mps 642 mmHg 46%
    09:00 +18°C° 0 mm 1 mps 643 mmHg 39%
    10:00 +21°C° 0 mm 1 mps 643 mmHg 33%
    11:00 +24°C° 0 mm 1 mps 644 mmHg 26%
    12:00 +25°C° 0 mm 1 mps 644 mmHg 23%
    13:00 +25°C° 0 mm 1 mps 643 mmHg 20%
    14:00 +26°C° 0 mm 1 mps 643 mmHg 17%
    15:00 +25°C° 0 mm 1 mps 642 mmHg 18%
    16:00 +24°C° 0 mm 1 mps 642 mmHg 18%
    17:00 +23°C° 0 mm 2 mps 641 mmHg 19%
    18:00 +20°C° 0 mm 2 mps 641 mmHg 23%
    19:00 +17°C° 0 mm 2 mps 641 mmHg 26%
    20:00 +15°C° 0 mm 2 mps 641 mmHg 29%
    21:00 +14°C° 0 mm 2 mps 641 mmHg 31%
    22:00 +14°C° 0 mm 2 mps 641 mmHg 34%
    23:00 +13°C° 0 mm 2 mps 641 mmHg 36%
    Show more